Indiana, PA

6:27 AM EDT on April 28, 2017 (GMT -0400)
Indiana County-Stewart

Weather History for KIDI - October, 2013

Change the Weather History Date:

Friday, October 25, 2013

  Actual Average Record
Temperature  
Mean Temperature 38 °F -  
Max Temperature 46 °F 60 °F 81 °F (1963)
Min Temperature 30 °F 39 °F 23 °F (1964)
Degree Days  
Heating Degree Days 27    
Moisture  
Dew Point 32 °F    
Average Humidity 86    
Maximum Humidity 100    
Minimum Humidity 49    
Precipitation  
Precipitation 0.00 in - - ()
Sea Level Pressure  
Sea Level Pressure 30.23 in    
Wind  
Wind Speed 5 mph (West)    
Max Wind Speed 17 mph    
Max Gust Speed 22 mph    
Visibility 8 miles    
Events      
Averages and records for this station are not official NWS values.
T = Trace of Precipitation, MM = Missing Value Source: NWS Daily Summary

Daily Weather History Graph

Daily Weather History Graph

Search for Another Location

Airport or City:

Trip Planner

Search our weather history database for the weather conditions in past years. The results will help you decide how hot, cold, wet, or windy it might be!

Date:

Astronomy

Oct. 25, 2013 Rise Set
Actual Time 7:38 AM EDT 6:21 PM EDT
Civil Twilight 7:10 AM EDT 6:49 PM EDT
Nautical Twilight 6:38 AM EDT 7:21 PM EDT
Astronomical Twilight 6:07 AM EDT 7:53 PM EDT
Moon 11:39 PM EDT (10/25) 1:18 PM EDT (10/25)
Length of Visible Light 11h 38m
Length of Day
10h 42m
Waning Gibbous, 62% of the Moon is Illuminated
Oct 25
Waning Gibbous
Oct 26
Last Quarter
Nov 3
New
Nov 10
First Quarter
Nov 17
Full

Hourly Weather History & Observations

Time (EDT) Temp. Windchill Dew Point Humidity Pressure Visibility Wind Dir Wind Speed Gust Speed Precip Events Conditions
12:15 AM 32.0 °F 27.5 °F 30.2 °F 93% 30.12 in - West 4.6 mph - N/A   Unknown
12:35 AM 32.0 °F - 30.2 °F 93% 30.13 in - Calm Calm - N/A   Unknown
12:55 AM 32.0 °F 27.5 °F 30.2 °F 93% 30.12 in - WSW 4.6 mph - N/A   Unknown
1:15 AM 30.2 °F - 30.2 °F 100% 30.13 in - Calm Calm - N/A   Unknown
1:35 AM 30.2 °F 26.7 °F 30.2 °F 100% 30.13 in - SW 3.5 mph - N/A   Unknown
1:55 AM 30.2 °F 25.4 °F 30.2 °F 100% 30.14 in - WSW 4.6 mph - N/A   Unknown
2:15 AM 30.2 °F 26.7 °F 30.2 °F 100% 30.14 in - West 3.5 mph - N/A   Unknown
2:35 AM 30.2 °F 25.4 °F 30.2 °F 100% 30.14 in 7.0 mi WSW 4.6 mph - N/A   Unknown
2:55 AM 30.2 °F 25.4 °F 30.2 °F 100% 30.15 in - WSW 4.6 mph - N/A   Unknown
3:15 AM 30.2 °F 23.4 °F 30.2 °F 100% 30.15 in - WSW 6.9 mph - N/A   Unknown
3:35 AM 30.2 °F 25.4 °F 30.2 °F 100% 30.15 in 7.0 mi WSW 4.6 mph - N/A   Unknown
3:55 AM 30.2 °F 25.4 °F 30.2 °F 100% 30.15 in 7.0 mi West 4.6 mph - N/A   Unknown
4:15 AM 32.0 °F 27.5 °F 32.0 °F 100% 30.16 in 7.0 mi West 4.6 mph - N/A   Unknown
4:35 AM 32.0 °F 26.4 °F 32.0 °F 100% 30.16 in 7.0 mi WSW 5.8 mph - N/A   Unknown
4:55 AM 32.0 °F 26.4 °F 32.0 °F 100% 30.17 in 7.0 mi WSW 5.8 mph - N/A   Unknown
5:15 AM 32.0 °F 24.2 °F 32.0 °F 100% 30.17 in 7.0 mi WSW 9.2 mph - N/A   Unknown
5:35 AM 32.0 °F 24.8 °F 32.0 °F 100% 30.18 in - WSW 8.1 mph - N/A   Unknown
5:55 AM 32.0 °F 26.4 °F 32.0 °F 100% 30.19 in 7.0 mi West 5.8 mph - N/A   Unknown
6:15 AM 32.0 °F 25.6 °F 32.0 °F 100% 30.20 in 7.0 mi WSW 6.9 mph - N/A   Unknown
6:35 AM 32.0 °F 26.4 °F 32.0 °F 100% 30.20 in 7.0 mi WSW 5.8 mph - N/A   Unknown
6:55 AM 32.0 °F 27.5 °F 32.0 °F 100% 30.21 in 7.0 mi West 4.6 mph - N/A   Unknown
7:15 AM 32.0 °F 25.6 °F 32.0 °F 100% 30.21 in 7.0 mi West 6.9 mph - N/A   Unknown
7:35 AM 32.0 °F 24.8 °F 32.0 °F 100% 30.22 in 7.0 mi WSW 8.1 mph - N/A   Unknown
7:55 AM 33.8 °F 27.7 °F 33.8 °F 100% 30.23 in 7.0 mi WSW 6.9 mph - N/A   Unknown
8:15 AM 33.8 °F 27.7 °F 33.8 °F 100% 30.24 in 7.0 mi WSW 6.9 mph - N/A   Unknown
8:35 AM 33.8 °F 28.6 °F 33.8 °F 100% 30.25 in 7.0 mi WSW 5.8 mph - N/A   Unknown
8:55 AM 33.8 °F 27.7 °F 33.8 °F 100% 30.26 in 5.0 mi WSW 6.9 mph - N/A   Unknown
9:15 AM 33.8 °F 26.4 °F 33.8 °F 100% 30.26 in 7.0 mi WSW 9.2 mph - N/A   Unknown
9:35 AM 33.8 °F 27.7 °F 33.8 °F 100% 30.27 in 7.0 mi WSW 6.9 mph - N/A   Unknown
9:55 AM 33.8 °F 27.7 °F 33.8 °F 100% 30.27 in 7.0 mi West 6.9 mph - N/A   Unknown
10:15 AM 35.6 °F 28.0 °F 35.6 °F 100% 30.28 in 7.0 mi WSW 10.4 mph - N/A   Unknown
10:35 AM 35.6 °F 29.9 °F 35.6 °F 100% 30.28 in 10.0 mi West 6.9 mph - N/A   Unknown
10:55 AM 35.6 °F 28.6 °F 35.6 °F 100% 30.29 in 10.0 mi West 9.2 mph - N/A   Unknown
11:15 AM 37.4 °F 31.4 °F 35.6 °F 93% 30.29 in 10.0 mi West 8.1 mph - N/A   Unknown
11:35 AM 37.4 °F 30.8 °F 35.6 °F 93% 30.29 in 10.0 mi West 9.2 mph - N/A   Unknown
11:55 AM 37.4 °F 30.8 °F 35.6 °F 93% 30.30 in 10.0 mi West 9.2 mph - N/A   Unknown
12:15 PM 39.2 °F 33.0 °F 35.6 °F 87% 30.29 in 10.0 mi West 9.2 mph - N/A   Unknown
12:35 PM 41.0 °F 34.7 °F 33.8 °F 76% 30.29 in 10.0 mi West 10.4 mph - N/A   Unknown
12:55 PM 42.8 °F 36.2 °F 33.8 °F 70% 30.28 in - West 12.7 mph 16.1 mph N/A   Unknown
1:15 PM 42.8 °F 38.6 °F 32.0 °F 66% 30.27 in - WNW 6.9 mph 17.3 mph N/A   Unknown
1:35 PM 42.8 °F 36.6 °F 32.0 °F 66% 30.26 in - WNW 11.5 mph 16.1 mph N/A   Unknown
1:55 PM 44.6 °F 38.4 °F 32.0 °F 61% 30.26 in - West 12.7 mph 17.3 mph N/A   Unknown
2:15 PM 44.6 °F 38.4 °F 30.2 °F 57% 30.25 in - West 12.7 mph 19.6 mph N/A   Unknown
2:35 PM 44.6 °F 39.7 °F 30.2 °F 57% 30.25 in - NW 9.2 mph - N/A   Unknown
2:55 PM 44.6 °F 41.4 °F 30.2 °F 57% 30.25 in - WNW 5.8 mph - N/A   Unknown
3:15 PM 46.4 °F 39.5 °F 28.4 °F 50% 30.25 in - West 17.3 mph 21.9 mph N/A   Unknown
3:35 PM 44.6 °F 37.4 °F 28.4 °F 53% 30.25 in 10.0 mi West 16.1 mph - N/A   Unknown
3:55 PM 44.6 °F 39.2 °F 28.4 °F 53% 30.25 in - West 10.4 mph - N/A   Unknown
4:15 PM 44.6 °F 39.7 °F 26.6 °F 49% 30.26 in - WNW 9.2 mph - N/A   Unknown
4:35 PM 44.6 °F 40.7 °F 28.4 °F 53% 30.26 in - West 6.9 mph - N/A   Unknown
4:55 PM 42.8 °F 37.5 °F 26.6 °F 53% 30.26 in - WNW 9.2 mph 16.1 mph N/A   Unknown
5:15 PM 42.8 °F 36.2 °F 26.6 °F 53% 30.26 in - West 12.7 mph 18.4 mph N/A   Unknown
5:35 PM 42.8 °F 38.6 °F 26.6 °F 53% 30.26 in - West 6.9 mph - N/A   Unknown
5:55 PM 42.8 °F 38.6 °F 26.6 °F 53% 30.26 in - WNW 6.9 mph - N/A   Unknown
6:15 PM 42.8 °F 38.6 °F 26.6 °F 53% 30.26 in - West 6.9 mph - N/A   Unknown
6:35 PM 41.0 °F 39.0 °F 28.4 °F 61% 30.26 in - West 3.5 mph - N/A   Unknown
6:55 PM 39.2 °F 35.9 °F 28.4 °F 65% 30.26 in - WSW 4.6 mph - N/A   Unknown
7:15 PM 37.4 °F 34.9 °F 30.2 °F 75% 30.26 in - SW 3.5 mph - N/A   Unknown
7:35 PM 37.4 °F - 33.8 °F 87% 30.27 in 10.0 mi Calm Calm - N/A   Unknown
7:55 PM 37.4 °F 34.9 °F 33.8 °F 87% 30.27 in 10.0 mi WSW 3.5 mph - N/A   Unknown
8:15 PM 35.6 °F - 33.8 °F 93% 30.27 in 10.0 mi Calm Calm - N/A   Unknown
8:35 PM 35.6 °F - 33.8 °F 93% 30.27 in 10.0 mi Calm Calm - N/A   Unknown
8:55 PM 35.6 °F - 33.8 °F 93% 30.26 in 10.0 mi Calm Calm - N/A   Unknown
9:15 PM 35.6 °F - 33.8 °F 93% 30.26 in 10.0 mi Calm Calm - N/A   Unknown
9:35 PM 33.8 °F - 32.0 °F 93% 30.26 in 10.0 mi Calm Calm - N/A   Unknown
9:55 PM 33.8 °F - 32.0 °F 93% 30.26 in 10.0 mi Calm Calm - N/A   Unknown
10:15 PM 32.0 °F - 30.2 °F 93% 30.25 in 10.0 mi Calm Calm - N/A   Unknown
10:35 PM 32.0 °F - 32.0 °F 100% 30.25 in 10.0 mi Calm Calm - N/A   Unknown
10:55 PM 32.0 °F - 32.0 °F 100% 30.25 in 10.0 mi Calm Calm - N/A   Unknown
11:15 PM 32.0 °F - 32.0 °F 100% 30.25 in 10.0 mi Calm Calm - N/A   Unknown
11:35 PM 33.8 °F - 33.8 °F 100% 30.24 in 10.0 mi Calm Calm - N/A   Unknown
11:55 PM 33.8 °F 30.8 °F 33.8 °F 100% 30.24 in 10.0 mi SW 3.5 mph - N/A   Unknown